Simultaneous Nadir Overpasses (SNOs) Predictions

Prediction of SNOs between GOES-16 and NOAA-19 Satellite Orbit:

Table of predicted SNOs for the next 14.0 days since TLE Epoch: 8/14/2020
Index Date Time (GOES-16) GOES-16 Lat,Lon NOAA-19 Lat,Lon Distance(km) Time Diff (sec)
1 08/14/2020 23:06:11 0.05, -75.18 -0.13, -75.86 77.72 80
2 08/15/2020 22:57:10 0.06, -75.17 0.54, -73.00 247.63 80
3 08/18/2020 11:18:10 -0.06, -75.17 0.57, -77.97 319.74 80
4 08/19/2020 11:03:48 -0.07, -75.16 -0.10, -75.12 6.33 80
5 08/20/2020 10:52:07 -0.07, -75.16 -0.78, -72.26 331.74 80
6 08/22/2020 23:15:44 0.07, -75.16 -0.40, -77.21 234.33 80
7 08/23/2020 23:01:22 0.07, -75.16 0.28, -74.36 92.07 80
8 08/24/2020 22:49:41 0.07, -75.16 0.95, -71.50 418.50 80
9 08/26/2020 11:25:00 -0.07, -75.18 0.91, -79.30 472.00 80
10 08/27/2020 11:13:18 -0.07, -75.18 0.23, -76.45 145.36 80
11 08/28/2020 10:58:57 -0.08, -75.19 -0.45, -73.60 181.39 80
